QTR773 OTHH-SBGR

Flight info

Callsign QTR773
Flight time N/A
Altitude 27000
Route DATRI L564 MIGMA/N0477F280 M550 MEVDO Y511 PMA V22 YEN L300 GIBEL/N0498F300 LXR M999 DITAR R778 TONBA DCT ILDOR/N0496F320 DCT DEMOX DCT BUNLU UR778 SABSI DCT DETAR DCT APRUN/N0493F320 DCT POLTO UL433 TYE DCT KIDNI/M083F340 DCT 02N005W/M083F360 03S010W 07S015W 0830S01730W 10S020W 1100S02230W 12S025W 1330S02730W 15S030W 1630S03230W 18S035W DCT VURIL UZ49 OBLAT/N0484F360 UZ49 MOLSU UN401 SIDUR/N0483F340 UZ10 ESORU/N0417F230 Z10 EDMUS
Aircraft B77L/H-SDE1E3FGHIJ5M1P2RWXYZ/LB1D1

Departure

Time 2026-05-04 19:53
Airport Hamad International Airport (OTHH)

Arrival

Time N/A
Airport São Paulo/Guarulhos–Governor André Franco Montoro International Airport (SBGR)
Time Latitude Longitude Altitude Speed Heading
2026-05-04 19:28 25.26529 51.61285 34 ft 0 kts 248°
2026-05-04 19:37 25.26530 51.61289 62 ft 3 kts 248°
2026-05-04 19:37 25.26540 51.61316 34 ft 4 kts 248°
2026-05-04 19:37 25.26549 51.61339 33 ft 3 kts 249°
2026-05-04 19:37 25.26553 51.61366 34 ft 4 kts 285°
2026-05-04 19:38 25.26541 51.61388 33 ft 4 kts 336°
2026-05-04 19:38 25.26517 51.61398 33 ft 4 kts 338°
2026-05-04 19:38 25.26510 51.61401 33 ft 0 kts 338°
2026-05-04 19:40 25.26517 51.61398 33 ft 2 kts 338°
2026-05-04 19:40 25.26531 51.61392 34 ft 2 kts 338°
2026-05-04 19:41 25.26564 51.61377 34 ft 10 kts 338°
2026-05-04 19:41 25.26653 51.61338 34 ft 15 kts 338°
2026-05-04 19:41 25.26753 51.61337 34 ft 15 kts 19°
2026-05-04 19:41 25.26851 51.61381 33 ft 15 kts 22°
2026-05-04 19:42 25.26946 51.61425 34 ft 15 kts 22°
2026-05-04 19:42 25.27017 51.61504 34 ft 15 kts 66°
2026-05-04 19:42 25.27055 51.61610 34 ft 15 kts 67°
2026-05-04 19:42 25.27089 51.61679 34 ft 9 kts 36°
2026-05-04 19:43 25.27149 51.61664 34 ft 9 kts 337°
2026-05-04 19:43 25.27209 51.61636 34 ft 9 kts 337°
2026-05-04 19:43 25.27268 51.61609 34 ft 9 kts 338°
2026-05-04 19:43 25.27328 51.61582 34 ft 9 kts 338°
2026-05-04 19:44 25.27388 51.61555 34 ft 9 kts 338°
2026-05-04 19:44 25.27428 51.61506 34 ft 9 kts 274°
2026-05-04 19:44 25.27408 51.61436 34 ft 10 kts 249°
2026-05-04 19:44 25.27383 51.61368 34 ft 10 kts 248°
2026-05-04 19:45 25.27359 51.61301 34 ft 10 kts 248°
2026-05-04 19:45 25.27334 51.61233 34 ft 10 kts 248°
2026-05-04 19:45 25.27309 51.61165 34 ft 9 kts 248°
2026-05-04 19:45 25.27284 51.61097 34 ft 10 kts 248°
2026-05-04 19:46 25.27254 51.61012 34 ft 14 kts 248°
2026-05-04 19:46 25.27215 51.60905 34 ft 15 kts 248°
2026-05-04 19:46 25.27175 51.60798 34 ft 15 kts 248°
2026-05-04 19:46 25.27132 51.60682 34 ft 22 kts 248°
2026-05-04 19:47 25.27078 51.60533 34 ft 19 kts 248°
2026-05-04 19:47 25.27030 51.60399 34 ft 19 kts 248°
2026-05-04 19:47 25.26980 51.60264 34 ft 19 kts 248°
2026-05-04 19:47 25.26949 51.60180 33 ft 8 kts 248°
2026-05-04 19:48 25.26909 51.60143 32 ft 8 kts 179°
2026-05-04 19:48 25.26854 51.60166 32 ft 9 kts 157°
2026-05-04 19:48 25.26775 51.60201 32 ft 13 kts 158°
2026-05-04 19:48 25.26689 51.60239 32 ft 13 kts 158°
2026-05-04 19:49 25.26603 51.60276 33 ft 13 kts 158°
2026-05-04 19:49 25.26518 51.60314 33 ft 13 kts 158°
2026-05-04 19:49 25.26432 51.60352 33 ft 13 kts 158°
2026-05-04 19:49 25.26346 51.60390 34 ft 13 kts 158°
2026-05-04 19:50 25.26261 51.60428 34 ft 13 kts 158°
2026-05-04 19:50 25.26178 51.60464 34 ft 8 kts 158°
2026-05-04 19:50 25.26125 51.60472 33 ft 8 kts 199°
2026-05-04 19:50 25.26094 51.60423 33 ft 8 kts 248°
2026-05-04 19:51 25.26073 51.60366 33 ft 8 kts 247°
2026-05-04 19:51 25.26063 51.60340 33 ft 2 kts 247°
2026-05-04 19:51 25.26063 51.60327 33 ft 2 kts 275°
2026-05-04 19:51 25.26072 51.60309 33 ft 4 kts 315°
2026-05-04 19:52 25.26127 51.60284 33 ft 17 kts 339°
2026-05-04 19:52 25.26398 51.60164 31 ft 77 kts 338°
2026-05-04 19:52 25.27126 51.59843 30 ft 146 kts 338°
2026-05-04 19:52 25.28253 51.59334 104 ft 193 kts 336°
2026-05-04 19:53 25.29491 51.58787 766 ft 192 kts 337°
2026-05-04 19:53 25.30717 51.58260 1414 ft 191 kts 339°
2026-05-04 19:53 25.32016 51.57699 1526 ft 210 kts 339°
2026-05-04 19:53 25.33431 51.57082 1689 ft 227 kts 339°
2026-05-04 19:54 25.34939 51.56418 2002 ft 239 kts 339°
2026-05-04 19:54 25.36514 51.55720 2362 ft 248 kts 339°
2026-05-04 19:54 25.38147 51.54994 2757 ft 257 kts 339°
2026-05-04 19:54 25.39844 51.54274 3143 ft 266 kts 346°
2026-05-04 19:55 25.41712 51.54223 3501 ft 276 kts 13°
2026-05-04 19:55 25.43445 51.55178 4017 ft 286 kts 39°
2026-05-04 19:55 25.44653 51.56946 4602 ft 295 kts 64°
2026-05-04 19:55 25.45086 51.59196 5177 ft 307 kts 88°
2026-05-04 19:56 25.44641 51.61537 5710 ft 319 kts 112°
2026-05-04 19:56 25.43414 51.63602 6285 ft 325 kts 128°
2026-05-04 19:56 25.41889 51.65480 6800 ft 330 kts 131°
2026-05-04 19:56 25.40293 51.67326 7368 ft 334 kts 132°
2026-05-04 19:57 25.38669 51.69168 7932 ft 334 kts 136°
2026-05-04 19:57 25.36720 51.70592 8363 ft 341 kts 160°
2026-05-04 19:57 25.34411 51.71150 8895 ft 341 kts 177°
2026-05-04 19:57 25.32039 51.71273 9502 ft 340 kts 182°
2026-05-04 19:58 25.29717 51.71025 10176 ft 330 kts 194°
2026-05-04 19:58 25.27463 51.70487 10630 ft 337 kts 196°
2026-05-04 19:58 25.25119 51.69869 10743 ft 355 kts 197°
2026-05-04 19:58 25.22658 51.69219 10889 ft 372 kts 196°
2026-05-04 19:59 25.20083 51.68555 11046 ft 388 kts 195°
2026-05-04 19:59 25.17415 51.67889 11421 ft 397 kts 195°
2026-05-04 19:59 25.14695 51.67227 11908 ft 402 kts 194°
2026-05-04 19:59 25.11957 51.66571 12530 ft 403 kts 194°
2026-05-04 20:00 25.09212 51.65918 13191 ft 404 kts 194°
2026-05-04 20:00 25.06463 51.65267 13791 ft 405 kts 194°
2026-05-04 20:00 25.03707 51.64609 14322 ft 406 kts 194°
2026-05-04 20:00 25.00936 51.63947 14877 ft 407 kts 194°
2026-05-04 20:01 24.98162 51.63287 15435 ft 408 kts 194°
2026-05-04 20:01 24.95379 51.62627 15977 ft 410 kts 194°
2026-05-04 20:01 24.92588 51.61966 16523 ft 411 kts 193°
2026-05-04 20:01 24.89791 51.61306 17053 ft 412 kts 193°
2026-05-04 20:02 24.86981 51.60643 17593 ft 414 kts 193°
2026-05-04 20:02 24.84162 51.59978 18082 ft 415 kts 193°
2026-05-04 20:02 24.81329 51.59310 18518 ft 417 kts 193°
2026-05-04 20:02 24.78478 51.58638 18923 ft 420 kts 193°
2026-05-04 20:03 24.75609 51.57962 19306 ft 423 kts 193°
2026-05-04 20:03 24.72724 51.57282 19690 ft 426 kts 193°
2026-05-04 20:03 24.69817 51.56597 20075 ft 428 kts 194°
2026-05-04 20:03 24.66897 51.55896 20460 ft 431 kts 194°
2026-05-04 20:04 24.63961 51.55198 20855 ft 433 kts 193°
2026-05-04 20:04 24.61004 51.54500 21244 ft 436 kts 193°
2026-05-04 20:04 24.58029 51.53798 21610 ft 439 kts 193°
2026-05-04 20:04 24.55038 51.53093 21977 ft 441 kts 194°
2026-05-04 20:05 24.52027 51.52382 22355 ft 444 kts 194°
2026-05-04 20:05 24.48997 51.51665 22707 ft 447 kts 194°
2026-05-04 20:05 24.45951 51.50945 23066 ft 449 kts 194°
2026-05-04 20:05 24.42890 51.50222 23401 ft 452 kts 194°
2026-05-04 20:06 24.39808 51.49494 23686 ft 454 kts 194°
2026-05-04 20:06 24.36711 51.48762 23992 ft 456 kts 194°
2026-05-04 20:06 24.33609 51.48031 24311 ft 457 kts 194°
2026-05-04 20:06 24.30497 51.47297 24614 ft 458 kts 194°
2026-05-04 20:07 24.27375 51.46561 24917 ft 460 kts 194°
2026-05-04 20:07 24.24238 51.45826 25195 ft 462 kts 193°
2026-05-04 20:07 24.21050 51.45287 25476 ft 465 kts 188°
2026-05-04 20:07 24.17805 51.45106 25752 ft 469 kts 182°
2026-05-04 20:08 24.14534 51.45137 26042 ft 471 kts 182°
2026-05-04 20:08 24.11251 51.45177 26308 ft 473 kts 182°
2026-05-04 20:08 24.07952 51.45212 26570 ft 475 kts 182°
2026-05-04 20:08 24.05759 51.45230 26747 ft 476 kts 182°
2026-05-04 20:09 24.02441 51.45250 27024 ft 478 kts 182°
2026-05-04 20:09 23.99117 51.45263 27300 ft 479 kts 182°
2026-05-04 20:09 23.95777 51.45273 27580 ft 481 kts 182°
2026-05-04 20:09 23.92416 51.45281 27721 ft 485 kts 183°
2026-05-04 20:10 23.89038 51.45288 27741 ft 486 kts 182°
2026-05-04 20:10 23.85653 51.45297 27783 ft 489 kts 182°
2026-05-04 20:10 23.82231 51.45305 27795 ft 495 kts 182°
2026-05-04 20:10 23.78772 51.45313 27814 ft 499 kts 182°
2026-05-04 20:11 23.75300 51.45323 27798 ft 498 kts 182°
2026-05-04 20:11 23.71834 51.45334 27794 ft 497 kts 182°
2026-05-04 20:11 23.68377 51.45344 27791 ft 497 kts 182°
2026-05-04 20:11 23.64921 51.45354 27791 ft 496 kts 182°
2026-05-04 20:12 23.61469 51.45364 27791 ft 496 kts 182°
2026-05-04 20:12 23.58025 51.45373 27798 ft 495 kts 182°
2026-05-04 20:12 23.53459 51.45385 27795 ft 495 kts 182°
2026-05-04 20:12 23.51131 51.45391 27796 ft 495 kts 182°
2026-05-04 20:13 23.47683 51.45401 27794 ft 495 kts 182°
2026-05-04 20:13 23.44240 51.45433 27807 ft 496 kts 182°
2026-05-04 20:13 23.40789 51.45491 27790 ft 496 kts 182°
2026-05-04 20:13 23.37338 51.45557 27792 ft 496 kts 181°
2026-05-04 20:14 23.33883 51.45620 27805 ft 497 kts 181°
2026-05-04 20:14 23.30425 51.45679 27802 ft 497 kts 182°
2026-05-04 20:14 23.26966 51.45735 27800 ft 498 kts 182°
2026-05-04 20:14 23.23504 51.45789 27800 ft 498 kts 182°
2026-05-04 20:15 23.20040 51.45843 27803 ft 498 kts 182°
2026-05-04 20:15 23.16571 51.45897 27804 ft 498 kts 182°
2026-05-04 20:15 23.13105 51.45951 27793 ft 499 kts 182°
2026-05-04 20:15 23.09636 51.46005 27803 ft 499 kts 182°
2026-05-04 20:16 23.06212 51.46059 27802 ft 499 kts 181°
2026-05-04 20:16 23.02694 51.46114 27805 ft 499 kts 181°
2026-05-04 20:16 22.99225 51.46168 27801 ft 499 kts 181°
2026-05-04 20:16 22.95754 51.46222 27802 ft 499 kts 182°
2026-05-04 20:17 22.92374 51.45972 27778 ft 491 kts 195°
2026-05-04 20:17 22.89159 51.44692 27809 ft 485 kts 212°
2026-05-04 20:17 22.86510 51.42550 27816 ft 482 kts 226°
2026-05-04 20:17 22.84341 51.39735 27811 ft 481 kts 237°
2026-05-04 20:18 22.82668 51.36598 27800 ft 481 kts 247°
2026-05-04 20:18 22.81745 51.33186 27824 ft 477 kts 259°
2026-05-04 20:18 22.81198 51.29630 27807 ft 480 kts 261°
2026-05-04 20:18 22.80666 51.26054 27818 ft 482 kts 260°
2026-05-04 20:19 22.80097 51.22468 27818 ft 484 kts 259°
2026-05-04 20:19 22.79487 51.18881 27815 ft 485 kts 259°
2026-05-04 20:19 22.78852 51.15283 27814 ft 486 kts 259°
2026-05-04 20:19 22.78211 51.11684 27811 ft 487 kts 259°
2026-05-04 20:20 22.77566 51.08085 27806 ft 487 kts 258°
2026-05-04 20:20 22.76918 51.04486 27804 ft 486 kts 258°
2026-05-04 20:20 22.76271 51.00892 27805 ft 485 kts 258°
2026-05-04 20:20 22.75640 50.97394 27806 ft 484 kts 258°
2026-05-04 20:21 22.74994 50.93814 27811 ft 483 kts 258°
2026-05-04 20:21 22.74350 50.90244 27810 ft 483 kts 258°
2026-05-04 20:21 22.73062 50.83119 27812 ft 481 kts 258°
2026-05-04 20:22 22.72418 50.79563 27813 ft 481 kts 258°
2026-05-04 20:22 22.71774 50.76011 27813 ft 481 kts 258°
2026-05-04 20:22 22.71129 50.72460 27814 ft 481 kts 258°
2026-05-04 20:22 22.70483 50.68909 27813 ft 481 kts 258°
2026-05-04 20:23 22.69836 50.65354 27813 ft 481 kts 258°
2026-05-04 20:23 22.69188 50.61801 27813 ft 481 kts 258°
2026-05-04 20:23 22.68539 50.58242 27816 ft 482 kts 258°
2026-05-04 20:23 22.67889 50.54686 27815 ft 482 kts 258°
2026-05-04 20:24 22.67237 50.51123 27814 ft 482 kts 258°
2026-05-04 20:24 22.66585 50.47565 27815 ft 482 kts 258°
2026-05-04 20:24 22.65931 50.44004 27814 ft 482 kts 258°
2026-05-04 20:24 22.65277 50.40442 27814 ft 483 kts 258°
2026-05-04 20:25 22.64622 50.36880 27814 ft 483 kts 258°
2026-05-04 20:25 22.63965 50.33316 27814 ft 483 kts 258°
2026-05-04 20:25 22.63308 50.29754 27814 ft 483 kts 258°
2026-05-04 20:25 22.62650 50.26192 27814 ft 483 kts 258°
2026-05-04 20:26 22.61992 50.22629 27812 ft 483 kts 258°
2026-05-04 20:26 22.61332 50.19067 27815 ft 483 kts 258°
2026-05-04 20:26 22.60672 50.15506 27810 ft 483 kts 258°
2026-05-04 20:26 22.60011 50.11943 27806 ft 483 kts 258°
2026-05-04 20:27 22.59349 50.08384 27808 ft 483 kts 258°
2026-05-04 20:27 22.58687 50.04826 27811 ft 483 kts 258°
2026-05-04 20:27 22.58023 50.01264 27811 ft 483 kts 258°
2026-05-04 20:27 22.57378 49.97804 27810 ft 483 kts 258°
2026-05-04 20:28 22.56713 49.94243 27808 ft 483 kts 258°
2026-05-04 20:28 22.56048 49.90684 27809 ft 483 kts 258°
2026-05-04 20:28 22.55382 49.87125 27807 ft 483 kts 258°
2026-05-04 20:28 22.54715 49.83568 27804 ft 483 kts 258°
2026-05-04 20:29 22.54142 49.79995 27799 ft 483 kts 263°
2026-05-04 20:29 22.53889 49.76421 27811 ft 483 kts 267°
2026-05-04 20:29 22.53880 49.72789 27810 ft 483 kts 272°
2026-05-04 20:29 22.54169 49.69163 27809 ft 484 kts 275°
2026-05-04 20:30 22.54531 49.65549 27812 ft 484 kts 275°
2026-05-04 20:30 22.54901 49.61929 27808 ft 484 kts 275°
2026-05-04 20:30 22.55267 49.58310 27804 ft 484 kts 275°
2026-05-04 20:30 22.55625 49.54684 27802 ft 485 kts 275°
2026-05-04 20:31 22.55977 49.51056 27803 ft 485 kts 275°
2026-05-04 20:31 22.56327 49.47377 27803 ft 485 kts 275°
2026-05-04 20:31 22.56669 49.43750 27809 ft 485 kts 275°
2026-05-04 20:31 22.57009 49.40120 27799 ft 485 kts 275°
2026-05-04 20:32 22.57348 49.36491 27791 ft 485 kts 275°
2026-05-04 20:32 22.57681 49.32910 27805 ft 484 kts 275°
2026-05-04 20:32 22.58018 49.29288 27804 ft 484 kts 275°
2026-05-04 20:32 22.58355 49.25663 27796 ft 484 kts 275°
2026-05-04 20:33 22.58691 49.22042 27807 ft 484 kts 275°
2026-05-04 20:33 22.59026 49.18419 27795 ft 484 kts 275°
2026-05-04 20:33 22.59360 49.14795 27806 ft 484 kts 275°
2026-05-04 20:33 22.59694 49.11172 27807 ft 484 kts 275°
2026-05-04 20:34 22.60026 49.07551 27792 ft 484 kts 275°
2026-05-04 20:34 22.60358 49.03926 27806 ft 484 kts 275°
2026-05-04 20:34 22.60689 49.00300 27808 ft 484 kts 275°
2026-05-04 20:34 22.61012 48.96762 27806 ft 485 kts 275°
2026-05-04 20:35 22.61342 48.93132 27803 ft 485 kts 275°
2026-05-04 20:35 22.61671 48.89500 27803 ft 485 kts 275°
2026-05-04 20:35 22.62000 48.85867 27802 ft 485 kts 275°
2026-05-04 20:35 22.62327 48.82234 27814 ft 485 kts 275°
2026-05-04 20:36 22.62654 48.78600 27799 ft 485 kts 275°
2026-05-04 20:36 22.62980 48.74973 27807 ft 484 kts 275°
2026-05-04 20:36 22.63305 48.71346 27799 ft 484 kts 275°
2026-05-04 20:36 22.63628 48.67723 27809 ft 483 kts 275°
2026-05-04 20:37 22.63951 48.64104 27798 ft 483 kts 275°
2026-05-04 20:37 22.64272 48.60487 27794 ft 483 kts 275°
2026-05-04 20:37 22.64593 48.56868 27810 ft 483 kts 275°
2026-05-04 20:37 22.64912 48.53251 27806 ft 483 kts 275°
2026-05-04 20:38 22.65231 48.49633 27807 ft 483 kts 275°
2026-05-04 20:38 22.65549 48.46015 27810 ft 483 kts 275°
2026-05-04 20:38 22.65867 48.42394 27797 ft 483 kts 275°
2026-05-04 20:38 22.66184 48.38771 27794 ft 483 kts 275°
2026-05-04 20:39 22.66500 48.35150 27807 ft 484 kts 275°
2026-05-04 20:39 22.66816 48.31520 27804 ft 484 kts 275°
2026-05-04 20:39 22.67130 48.27892 27802 ft 484 kts 275°
2026-05-04 20:39 22.67445 48.24260 27818 ft 485 kts 275°
2026-05-04 20:40 22.67758 48.20629 27803 ft 485 kts 275°
2026-05-04 20:40 22.68071 48.16996 27795 ft 484 kts 275°
2026-05-04 20:40 22.68383 48.13363 27805 ft 484 kts 275°
2026-05-04 20:40 22.68694 48.09737 27800 ft 484 kts 274°
2026-05-04 20:41 22.69000 48.06157 27804 ft 484 kts 274°
2026-05-04 20:41 22.69313 48.02482 27811 ft 484 kts 274°
2026-05-04 20:41 22.69605 47.99006 27812 ft 483 kts 274°
2026-05-04 20:41 22.69908 47.95381 27816 ft 483 kts 274°
2026-05-04 20:42 22.70213 47.91709 27807 ft 483 kts 274°
2026-05-04 20:42 22.70509 47.88136 27805 ft 483 kts 274°
2026-05-04 20:42 22.70809 47.84513 27816 ft 483 kts 274°
2026-05-04 20:42 22.71108 47.80894 27802 ft 483 kts 274°
2026-05-04 20:43 22.71407 47.77271 27822 ft 483 kts 274°
2026-05-04 20:43 22.71704 47.73651 27818 ft 483 kts 274°
2026-05-04 20:43 22.72001 47.70033 27812 ft 483 kts 274°
2026-05-04 20:43 22.72297 47.66413 27817 ft 482 kts 274°
2026-05-04 20:44 22.72592 47.62794 27820 ft 482 kts 274°
2026-05-04 20:44 22.72887 47.59175 27831 ft 482 kts 274°
2026-05-04 20:44 22.73180 47.55560 27830 ft 482 kts 274°
2026-05-04 20:44 22.73472 47.51949 27828 ft 481 kts 274°
2026-05-04 20:45 22.73763 47.48336 27829 ft 481 kts 274°
2026-05-04 20:45 22.74053 47.44731 27833 ft 480 kts 274°
2026-05-04 20:45 22.74342 47.41129 27837 ft 480 kts 274°
2026-05-04 20:45 22.74630 47.37528 27843 ft 480 kts 274°
2026-05-04 20:46 22.74917 47.33925 27843 ft 480 kts 274°
2026-05-04 20:46 22.75203 47.30327 27840 ft 480 kts 274°
2026-05-04 20:46 22.75488 47.26729 27842 ft 480 kts 274°
2026-05-04 20:46 22.75773 47.23130 27851 ft 479 kts 274°
2026-05-04 20:47 22.76057 47.19529 27852 ft 479 kts 274°
2026-05-04 20:47 22.76340 47.15933 27853 ft 479 kts 274°
2026-05-04 20:47 22.76627 47.12333 27855 ft 479 kts 274°
2026-05-04 20:47 22.76916 47.08735 27850 ft 480 kts 274°
2026-05-04 20:48 22.77204 47.05134 27868 ft 480 kts 273°
2026-05-04 20:48 22.77492 47.01537 27867 ft 479 kts 273°
2026-05-04 20:48 22.77770 46.98040 27860 ft 479 kts 273°
2026-05-04 20:48 22.78054 46.94446 27866 ft 479 kts 273°
2026-05-04 20:49 22.78338 46.90850 27865 ft 479 kts 273°
2026-05-04 20:49 22.78621 46.87260 27864 ft 478 kts 273°
2026-05-04 20:49 22.78902 46.83672 27866 ft 478 kts 273°
2026-05-04 20:49 22.79183 46.80084 27867 ft 478 kts 273°
2026-05-04 20:50 22.79462 46.76498 27862 ft 477 kts 273°
2026-05-04 20:50 22.79741 46.72915 27876 ft 477 kts 273°
2026-05-04 20:50 22.80018 46.69333 27876 ft 477 kts 273°
2026-05-04 20:50 22.80295 46.65752 27869 ft 477 kts 273°
2026-05-04 20:51 22.80572 46.62167 27880 ft 477 kts 273°
2026-05-04 20:51 22.80847 46.58588 27883 ft 477 kts 273°
2026-05-04 20:51 22.81121 46.55005 27881 ft 477 kts 273°
2026-05-04 20:51 22.81395 46.51422 27887 ft 477 kts 273°
2026-05-04 20:52 22.81668 46.47836 27898 ft 477 kts 273°
2026-05-04 20:52 22.81941 46.44255 27890 ft 477 kts 273°
2026-05-04 20:52 22.82212 46.40674 27888 ft 477 kts 273°
2026-05-04 20:52 22.82481 46.37096 27887 ft 476 kts 273°
2026-05-04 20:53 22.82747 46.33522 27893 ft 475 kts 272°
2026-05-04 20:53 22.83010 46.29952 27884 ft 475 kts 272°
2026-05-04 20:53 22.83184 46.27586 27885 ft 475 kts 272°
2026-05-04 20:53 22.83533 46.22821 27888 ft 474 kts 272°
2026-05-04 20:54 22.83794 46.19256 27886 ft 474 kts 272°
2026-05-04 20:54 22.83966 46.16899 27882 ft 474 kts 272°
2026-05-04 20:54 22.84225 46.13338 27887 ft 474 kts 272°
2026-05-04 20:54 22.84484 46.09778 27888 ft 474 kts 272°
2026-05-04 20:55 22.84742 46.06218 27881 ft 474 kts 272°
2026-05-04 20:55 22.84999 46.02652 27877 ft 474 kts 272°
2026-05-04 20:55 22.85249 45.99177 27876 ft 474 kts 272°
2026-05-04 20:55 22.85505 45.95612 27881 ft 474 kts 272°
2026-05-04 20:56 22.85760 45.92048 27882 ft 474 kts 272°
2026-05-04 20:56 22.86015 45.88482 27880 ft 474 kts 272°
2026-05-04 20:56 22.86268 45.84919 27875 ft 474 kts 272°
2026-05-04 20:56 22.86520 45.81361 27872 ft 473 kts 272°
2026-05-04 20:57 22.86771 45.77805 27872 ft 473 kts 272°
2026-05-04 20:57 22.87022 45.74250 27872 ft 472 kts 272°
2026-05-04 20:57 22.87271 45.70701 27874 ft 472 kts 272°
2026-05-04 20:57 22.87519 45.67154 27874 ft 472 kts 272°
2026-05-04 20:58 22.87766 45.63612 27875 ft 471 kts 272°
2026-05-04 20:58 22.88012 45.60067 27871 ft 471 kts 272°
2026-05-04 20:58 22.88257 45.56527 27874 ft 471 kts 272°
2026-05-04 20:58 22.88502 45.52983 27874 ft 471 kts 272°
2026-05-04 20:59 22.88746 45.49443 27873 ft 471 kts 272°
2026-05-04 20:59 22.88989 45.45899 27877 ft 471 kts 272°
2026-05-04 20:59 22.89231 45.42357 27878 ft 471 kts 272°
2026-05-04 20:59 22.89472 45.38817 27880 ft 471 kts 272°
2026-05-04 21:00 22.89713 45.35275 27887 ft 471 kts 272°
2026-05-04 21:00 22.89953 45.31731 27885 ft 471 kts 272°
2026-05-04 21:00 22.90192 45.28193 27880 ft 471 kts 272°
2026-05-04 21:00 22.90430 45.24654 27876 ft 470 kts 272°
2026-05-04 21:01 22.90667 45.21119 27877 ft 470 kts 272°
2026-05-04 21:01 22.90903 45.17584 27875 ft 469 kts 272°
2026-05-04 21:01 22.91139 45.14055 27879 ft 469 kts 272°
2026-05-04 21:01 22.91373 45.10525 27883 ft 469 kts 272°
2026-05-04 21:02 22.91607 45.06996 27884 ft 469 kts 272°
2026-05-04 21:02 22.91840 45.03467 27886 ft 469 kts 272°
2026-05-04 21:02 22.92071 44.99952 27884 ft 469 kts 272°
2026-05-04 21:02 22.92298 44.96496 27892 ft 470 kts 272°
2026-05-04 21:03 22.92530 44.92962 27889 ft 470 kts 272°
2026-05-04 21:03 22.92761 44.89425 27886 ft 470 kts 272°
2026-05-04 21:03 22.92991 44.85885 27890 ft 470 kts 272°
2026-05-04 21:03 22.93222 44.82343 27892 ft 471 kts 272°
2026-05-04 21:04 22.93450 44.78802 27886 ft 471 kts 272°
2026-05-04 21:04 22.93678 44.75258 27891 ft 471 kts 272°
2026-05-04 21:04 22.93907 44.71716 27888 ft 471 kts 272°
2026-05-04 21:04 22.94308 44.68184 27889 ft 473 kts 277°
2026-05-04 21:05 22.94973 44.64692 27892 ft 474 kts 281°
2026-05-04 21:05 22.95924 44.61258 27898 ft 476 kts 285°
2026-05-04 21:05 22.96993 44.57864 27899 ft 476 kts 285°
2026-05-04 21:05 22.98067 44.54468 27888 ft 476 kts 285°
2026-05-04 21:06 22.99136 44.51073 27892 ft 475 kts 285°
2026-05-04 21:06 23.00199 44.47676 27895 ft 475 kts 285°
2026-05-04 21:06 23.01254 44.44277 27897 ft 475 kts 285°
2026-05-04 21:06 23.02303 44.40880 27898 ft 475 kts 285°
2026-05-04 21:07 23.03351 44.37478 27897 ft 475 kts 285°
2026-05-04 21:07 23.04396 44.34079 27895 ft 475 kts 285°
2026-05-04 21:07 23.05440 44.30679 27896 ft 475 kts 285°
2026-05-04 21:07 23.06482 44.27282 27898 ft 474 kts 285°
2026-05-04 21:08 23.07524 44.23884 27895 ft 474 kts 285°
2026-05-04 21:08 23.08566 44.20485 27898 ft 474 kts 285°
2026-05-04 21:08 23.09607 44.17086 27899 ft 474 kts 285°
2026-05-04 21:08 23.10646 44.13689 27905 ft 474 kts 285°
2026-05-04 21:09 23.11684 44.10293 27906 ft 474 kts 285°
2026-05-04 21:09 23.12722 44.06896 27907 ft 474 kts 285°
2026-05-04 21:09 23.13759 44.03497 27906 ft 474 kts 285°
2026-05-04 21:09 23.14796 44.00096 27916 ft 473 kts 285°
2026-05-04 21:10 23.15802 43.96795 27923 ft 473 kts 285°
2026-05-04 21:10 23.16836 43.93399 27917 ft 473 kts 285°
2026-05-04 21:10 23.17868 43.90008 27918 ft 472 kts 285°
2026-05-04 21:10 23.18897 43.86620 27917 ft 472 kts 285°
2026-05-04 21:11 23.19925 43.83235 27923 ft 472 kts 285°
2026-05-04 21:11 23.20952 43.79850 27937 ft 471 kts 285°
2026-05-04 21:11 23.21978 43.76467 27931 ft 471 kts 285°
2026-05-04 21:11 23.23002 43.73087 27938 ft 471 kts 285°
2026-05-04 21:12 23.24023 43.69710 27938 ft 470 kts 285°
2026-05-04 21:12 23.25045 43.66329 27950 ft 470 kts 285°
2026-05-04 21:12 23.26066 43.62951 27956 ft 470 kts 285°
2026-05-04 21:12 23.27086 43.59573 27952 ft 470 kts 285°
2026-05-04 21:13 23.28105 43.56192 27954 ft 470 kts 285°
2026-05-04 21:13 23.29122 43.52814 27953 ft 470 kts 285°
2026-05-04 21:13 23.30124 43.49481 27962 ft 470 kts 285°
2026-05-04 21:13 23.31151 43.46058 27957 ft 470 kts 285°
2026-05-04 21:14 23.32164 43.42679 27970 ft 470 kts 285°
2026-05-04 21:14 23.33177 43.39300 27969 ft 470 kts 285°
2026-05-04 21:14 23.34176 43.35964 27966 ft 470 kts 285°
2026-05-04 21:14 23.35187 43.32584 27972 ft 470 kts 284°
2026-05-04 21:15 23.36196 43.29209 27970 ft 469 kts 284°
2026-05-04 21:15 23.37204 43.25832 27977 ft 469 kts 284°
2026-05-04 21:15 23.38213 43.22450 27981 ft 469 kts 284°
2026-05-04 21:15 23.39220 43.19074 27988 ft 469 kts 284°
2026-05-04 21:16 23.40226 43.15697 27987 ft 469 kts 284°
2026-05-04 21:16 23.41231 43.12318 27986 ft 469 kts 284°
2026-05-04 21:16 23.42231 43.08940 27994 ft 469 kts 284°
2026-05-04 21:16 23.43230 43.05557 27993 ft 469 kts 284°
2026-05-04 21:17 23.45195 42.98896 28004 ft 469 kts 284°
2026-05-04 21:17 23.46190 42.95518 28000 ft 469 kts 284°
2026-05-04 21:17 23.47185 42.92138 27999 ft 468 kts 284°
2026-05-04 21:18 23.48179 42.88761 27995 ft 468 kts 284°
2026-05-04 21:18 23.49171 42.85384 28000 ft 468 kts 284°
2026-05-04 21:18 23.51152 42.78638 28000 ft 467 kts 284°
2026-05-04 21:19 23.52140 42.75267 27998 ft 467 kts 284°
2026-05-04 21:19 23.53132 42.71896 28000 ft 467 kts 284°
2026-05-04 21:19 23.54128 42.68525 27999 ft 467 kts 284°
2026-05-04 21:19 23.55124 42.65159 28000 ft 467 kts 284°
2026-05-04 21:20 23.57113 42.58419 28005 ft 467 kts 284°
2026-05-04 21:20 23.58106 42.55048 27998 ft 467 kts 284°
2026-05-04 21:20 23.59098 42.51675 27994 ft 467 kts 284°
2026-05-04 21:21 23.60086 42.48311 27995 ft 466 kts 284°
2026-05-04 21:21 23.61075 42.44941 27997 ft 466 kts 284°
2026-05-04 21:21 23.62062 42.41575 27993 ft 466 kts 284°
2026-05-04 21:21 23.63047 42.38214 28005 ft 466 kts 284°
2026-05-04 21:22 23.64032 42.34849 28000 ft 465 kts 284°
2026-05-04 21:22 23.65015 42.31489 27995 ft 465 kts 284°
2026-05-04 21:22 23.65997 42.28128 27991 ft 465 kts 284°
2026-05-04 21:22 23.66971 42.24769 27994 ft 464 kts 284°
2026-05-04 21:23 23.67938 42.21413 27990 ft 464 kts 284°
2026-05-04 21:23 23.68903 42.18055 28007 ft 464 kts 284°
2026-05-04 21:23 23.69867 42.14699 28000 ft 463 kts 284°
2026-05-04 21:23 23.70829 42.11349 27996 ft 463 kts 284°
2026-05-04 21:24 23.71792 42.07997 27997 ft 462 kts 284°
2026-05-04 21:24 23.72753 42.04649 27998 ft 462 kts 284°
2026-05-04 21:24 23.73712 42.01306 27998 ft 462 kts 284°
2026-05-04 21:24 23.74645 41.98052 28010 ft 461 kts 284°
2026-05-04 21:25 23.76583 41.91379 27987 ft 461 kts 284°
2026-05-04 21:25 23.78521 41.84723 27989 ft 460 kts 284°
2026-05-04 21:26 23.79487 41.81395 27998 ft 459 kts 284°
2026-05-04 21:26 23.80449 41.78072 28002 ft 459 kts 284°
2026-05-04 21:26 23.81409 41.74748 27996 ft 459 kts 284°
2026-05-04 21:26 23.82367 41.71418 27996 ft 459 kts 284°
2026-05-04 21:27 23.83322 41.68090 27996 ft 459 kts 284°
2026-05-04 21:27 23.84275 41.64765 28011 ft 459 kts 284°
2026-05-04 21:27 23.85230 41.61435 27998 ft 459 kts 284°
2026-05-04 21:27 23.86184 41.58107 28009 ft 459 kts 284°
2026-05-04 21:28 23.88089 41.51445 27998 ft 459 kts 283°
2026-05-04 21:28 23.89039 41.48113 27997 ft 459 kts 283°
2026-05-04 21:28 23.89988 41.44782 28002 ft 459 kts 283°
2026-05-04 21:29 23.91885 41.38119 28000 ft 459 kts 283°
2026-05-04 21:29 23.92833 41.34786 27997 ft 459 kts 283°
2026-05-04 21:29 23.93778 41.31460 28004 ft 459 kts 283°
2026-05-04 21:30 23.94723 41.28126 27998 ft 459 kts 283°
2026-05-04 21:30 23.95665 41.24800 27992 ft 458 kts 283°
2026-05-04 21:30 23.96608 41.21469 27997 ft 458 kts 283°
2026-05-04 21:30 23.97548 41.18144 27993 ft 458 kts 283°
2026-05-04 21:31 24.00364 41.08167 27999 ft 458 kts 283°
2026-05-04 21:31 24.01301 41.04842 27998 ft 457 kts 283°
2026-05-04 21:32 24.02238 41.01516 27996 ft 457 kts 283°
2026-05-04 21:32 24.03146 40.98289 27989 ft 457 kts 283°
2026-05-04 21:32 24.04080 40.94965 27987 ft 457 kts 283°
2026-05-04 21:32 24.05012 40.91643 27987 ft 457 kts 283°
2026-05-04 21:33 24.05943 40.88321 27997 ft 457 kts 283°
2026-05-04 21:33 24.06873 40.84998 27990 ft 456 kts 283°
2026-05-04 21:33 24.07801 40.81680 27989 ft 456 kts 283°
2026-05-04 21:33 24.08728 40.78362 27988 ft 456 kts 283°
2026-05-04 21:34 24.09653 40.75045 27993 ft 456 kts 283°
2026-05-04 21:34 24.10578 40.71729 27988 ft 455 kts 283°
2026-05-04 21:34 24.11501 40.68418 27986 ft 455 kts 283°
2026-05-04 21:34 24.12424 40.65101 27986 ft 455 kts 283°
2026-05-04 21:35 24.13347 40.61782 27982 ft 455 kts 283°
2026-05-04 21:35 24.14268 40.58466 27984 ft 455 kts 283°
2026-05-04 21:35 24.15189 40.55150 27987 ft 455 kts 283°
2026-05-04 21:35 24.16209 40.51864 27987 ft 458 kts 287°
2026-05-04 21:36 24.17485 40.48661 27986 ft 461 kts 292°
2026-05-04 21:36 24.18989 40.45551 27998 ft 462 kts 293°
2026-05-04 21:36 24.19991 40.43495 27993 ft 462 kts 293°
2026-05-04 21:36 24.21501 40.40387 27985 ft 462 kts 293°
2026-05-04 21:37 24.23489 40.36265 27978 ft 462 kts 292°
2026-05-04 21:37 24.24982 40.33153 27990 ft 461 kts 292°
2026-05-04 21:37 24.26471 40.30037 27980 ft 461 kts 292°
2026-05-04 21:37 24.27475 40.27933 27976 ft 461 kts 292°
2026-05-04 21:38 24.28960 40.24819 27987 ft 461 kts 292°
2026-05-04 21:38 24.30442 40.21707 27988 ft 460 kts 292°
2026-05-04 21:38 24.31923 40.18596 27987 ft 460 kts 292°
2026-05-04 21:38 24.33402 40.15486 27982 ft 460 kts 292°
2026-05-04 21:39 24.34882 40.12375 27988 ft 460 kts 292°
2026-05-04 21:39 24.36359 40.09268 27981 ft 459 kts 292°
2026-05-04 21:39 24.37836 40.06159 27979 ft 459 kts 292°
2026-05-04 21:39 24.39309 40.03054 27983 ft 459 kts 292°
2026-05-04 21:40 24.40777 39.99960 27994 ft 459 kts 292°
2026-05-04 21:40 24.42214 39.96927 27991 ft 459 kts 292°
2026-05-04 21:40 24.43687 39.93817 27983 ft 459 kts 292°
2026-05-04 21:40 24.45159 39.90708 27987 ft 459 kts 292°
2026-05-04 21:41 24.46630 39.87599 27986 ft 459 kts 292°
2026-05-04 21:41 24.48102 39.84485 27995 ft 459 kts 292°
2026-05-04 21:41 24.49573 39.81372 27997 ft 460 kts 292°
2026-05-04 21:42 24.52468 39.75128 27989 ft 455 kts 288°
2026-05-04 21:42 24.53331 39.71829 27999 ft 446 kts 276°
2026-05-04 21:42 24.53617 39.68451 27991 ft 444 kts 269°
2026-05-04 21:42 24.53484 39.65075 27994 ft 442 kts 260°
2026-05-04 21:43 24.52807 39.61808 28009 ft 439 kts 255°
2026-05-04 21:43 24.51204 39.55268 27998 ft 446 kts 255°
2026-05-04 21:43 24.50408 39.51979 27983 ft 446 kts 255°
2026-05-04 21:44 24.49630 39.48718 27992 ft 445 kts 255°
2026-05-04 21:44 24.48853 39.45430 27975 ft 445 kts 255°
2026-05-04 21:44 24.48080 39.42138 27966 ft 445 kts 255°
2026-05-04 21:44 24.47312 39.38852 27977 ft 444 kts 255°
2026-05-04 21:45 24.46543 39.35571 27978 ft 444 kts 255°
2026-05-04 21:45 24.45774 39.32289 27966 ft 444 kts 255°
2026-05-04 21:45 24.45002 39.29002 27955 ft 445 kts 255°
2026-05-04 21:45 24.44229 39.25716 27965 ft 445 kts 255°
2026-05-04 21:46 24.43456 39.22430 27955 ft 445 kts 255°
2026-05-04 21:46 24.42682 39.19144 27966 ft 445 kts 255°
2026-05-04 21:46 24.41908 39.15862 27966 ft 445 kts 255°
2026-05-04 21:46 24.41132 39.12576 27971 ft 445 kts 255°
2026-05-04 21:47 24.40355 39.09289 27963 ft 445 kts 255°
2026-05-04 21:47 24.39577 39.05999 27951 ft 445 kts 255°
2026-05-04 21:47 24.38799 39.02711 27924 ft 445 kts 255°
2026-05-04 21:47 24.38034 38.99486 27941 ft 445 kts 255°
2026-05-04 21:48 24.37254 38.96202 27948 ft 445 kts 255°
2026-05-04 21:48 24.36474 38.92919 27936 ft 445 kts 255°
2026-05-04 21:48 24.35693 38.89634 27927 ft 446 kts 255°
2026-05-04 21:48 24.34910 38.86342 27934 ft 446 kts 255°
2026-05-04 21:49 24.34126 38.83049 27890 ft 446 kts 255°
2026-05-04 21:49 24.33343 38.79768 27909 ft 444 kts 255°
2026-05-04 21:49 24.32563 38.76496 27889 ft 444 kts 255°
2026-05-04 21:49 24.31781 38.73223 27868 ft 443 kts 255°
2026-05-04 21:50 24.31002 38.69957 27902 ft 444 kts 255°
2026-05-04 21:50 24.30217 38.66675 27884 ft 445 kts 255°
2026-05-04 21:50 24.29432 38.63398 27867 ft 445 kts 255°
2026-05-04 21:50 24.28645 38.60118 27862 ft 445 kts 255°
2026-05-04 21:51 24.27861 38.56843 27872 ft 444 kts 255°
2026-05-04 21:51 24.27087 38.53618 27865 ft 443 kts 255°
2026-05-04 21:51 24.26302 38.50354 27864 ft 443 kts 255°
2026-05-04 21:51 24.25508 38.47049 27833 ft 442 kts 255°
2026-05-04 21:52 24.24725 38.43798 27845 ft 441 kts 255°
2026-05-04 21:52 24.23941 38.40546 27831 ft 442 kts 255°
2026-05-04 21:52 24.23153 38.37294 27816 ft 442 kts 255°
2026-05-04 21:52 24.22362 38.34042 27804 ft 442 kts 255°
2026-05-04 21:53 24.21569 38.30788 27809 ft 442 kts 254°
2026-05-04 21:53 24.20775 38.27531 27791 ft 443 kts 254°
2026-05-04 21:53 24.19980 38.24269 27796 ft 444 kts 254°
2026-05-04 21:53 24.19184 38.21004 27787 ft 444 kts 254°
2026-05-04 21:54 24.18386 38.17734 27787 ft 445 kts 254°
2026-05-04 21:54 24.17586 38.14461 27785 ft 445 kts 254°
2026-05-04 21:54 24.16786 38.11190 27779 ft 445 kts 254°
2026-05-04 21:54 24.16138 38.07889 27771 ft 444 kts 262°
2026-05-04 21:55 24.16035 38.04503 27785 ft 446 kts 270°
2026-05-04 21:55 24.16294 38.01111 27782 ft 448 kts 275°
2026-05-04 21:55 24.16887 37.97817 27775 ft 452 kts 283°
2026-05-04 21:55 24.17913 37.94557 27798 ft 453 kts 285°
2026-05-04 21:56 24.19002 37.91317 27795 ft 453 kts 286°
2026-05-04 21:56 24.20100 37.88081 27792 ft 453 kts 286°
2026-05-04 21:56 24.21192 37.84843 27800 ft 453 kts 285°
2026-05-04 21:56 24.22272 37.81603 27789 ft 452 kts 285°
2026-05-04 21:57 24.23340 37.78366 27817 ft 452 kts 285°
2026-05-04 21:57 24.24401 37.75127 27806 ft 452 kts 285°
2026-05-04 21:57 24.25458 37.71885 27823 ft 451 kts 285°
2026-05-04 21:57 24.26510 37.68649 27842 ft 451 kts 285°
2026-05-04 21:58 24.27560 37.65412 27837 ft 451 kts 285°
2026-05-04 21:58 24.28609 37.62179 27841 ft 450 kts 285°
2026-05-04 21:58 24.29656 37.58949 27857 ft 450 kts 285°
2026-05-04 21:58 24.30703 37.55719 27858 ft 450 kts 285°
2026-05-04 21:59 24.31749 37.52486 27857 ft 449 kts 285°
2026-05-04 21:59 24.32793 37.49260 27871 ft 449 kts 285°
2026-05-04 21:59 24.33838 37.46029 27887 ft 449 kts 285°
2026-05-04 21:59 24.34882 37.42797 27890 ft 450 kts 285°
2026-05-04 22:00 24.35925 37.39565 27885 ft 450 kts 285°
2026-05-04 22:00 24.36969 37.36330 27889 ft 450 kts 285°
2026-05-04 22:00 24.38009 37.33101 27902 ft 449 kts 285°
2026-05-04 22:00 24.39050 37.29869 27900 ft 449 kts 285°
2026-05-04 22:01 24.40090 37.26637 27902 ft 449 kts 285°
2026-05-04 22:01 24.41129 37.23405 27919 ft 449 kts 285°
2026-05-04 22:01 24.42168 37.20168 27915 ft 450 kts 285°
2026-05-04 22:01 24.43207 37.16931 27911 ft 450 kts 285°
2026-05-04 22:02 24.44245 37.13695 27923 ft 450 kts 285°
2026-05-04 22:02 24.45282 37.10458 27924 ft 450 kts 285°
2026-05-04 22:02 24.46319 37.07220 27923 ft 450 kts 285°
2026-05-04 22:02 24.47354 37.03983 27934 ft 450 kts 285°
2026-05-04 22:03 24.48390 37.00743 27935 ft 450 kts 285°
2026-05-04 22:03 24.49406 36.97561 27946 ft 450 kts 285°
2026-05-04 22:03 24.50440 36.94320 27938 ft 450 kts 285°
2026-05-04 22:03 24.51473 36.91079 27939 ft 450 kts 285°
2026-05-04 22:04 24.52505 36.87839 27937 ft 450 kts 285°
2026-05-04 22:04 24.53536 36.84599 27937 ft 450 kts 285°
2026-05-04 22:04 24.54568 36.81355 27939 ft 450 kts 285°
2026-05-04 22:04 24.55584 36.78156 27940 ft 450 kts 285°
2026-05-04 22:05 24.56613 36.74916 27943 ft 449 kts 285°
2026-05-04 22:05 24.57655 36.71631 27955 ft 449 kts 285°
2026-05-04 22:05 24.58669 36.68431 27950 ft 449 kts 285°
2026-05-04 22:05 24.59696 36.65189 27945 ft 449 kts 285°
2026-05-04 22:06 24.60721 36.61950 27950 ft 449 kts 285°
2026-05-04 22:06 24.61745 36.58712 27951 ft 449 kts 285°
2026-05-04 22:06 24.62765 36.55470 27953 ft 449 kts 285°
2026-05-04 22:06 24.63776 36.52230 27956 ft 448 kts 284°
2026-05-04 22:07 24.64784 36.48984 27967 ft 448 kts 284°
2026-05-04 22:07 24.65790 36.45740 27955 ft 448 kts 284°
2026-05-04 22:07 24.66796 36.42497 27960 ft 448 kts 284°
2026-05-04 22:07 24.67803 36.39251 27958 ft 448 kts 284°
2026-05-04 22:08 24.68809 36.36010 27958 ft 448 kts 284°
2026-05-04 22:08 24.69814 36.32766 27961 ft 448 kts 284°
2026-05-04 22:08 24.70819 36.29521 27961 ft 448 kts 284°
2026-05-04 22:08 24.71822 36.26279 27962 ft 448 kts 284°
2026-05-04 22:09 24.72825 36.23035 27972 ft 448 kts 284°
2026-05-04 22:09 24.73826 36.19789 27967 ft 448 kts 284°
2026-05-04 22:09 24.74826 36.16547 27964 ft 448 kts 284°
2026-05-04 22:09 24.75825 36.13300 27964 ft 448 kts 284°
2026-05-04 22:10 24.76823 36.10056 27963 ft 448 kts 284°
2026-05-04 22:10 24.77821 36.06809 27965 ft 448 kts 284°
2026-05-04 22:10 24.78818 36.03563 27971 ft 448 kts 284°
2026-05-04 22:10 24.79814 36.00316 27969 ft 448 kts 284°
2026-05-04 22:11 24.80793 35.97122 27969 ft 448 kts 284°
2026-05-04 22:11 24.81787 35.93876 27970 ft 448 kts 284°
2026-05-04 22:11 24.82782 35.90627 27969 ft 448 kts 284°
2026-05-04 22:11 24.83775 35.87377 27969 ft 448 kts 284°
2026-05-04 22:12 24.84768 35.84127 27973 ft 448 kts 284°
2026-05-04 22:12 24.85760 35.80877 27973 ft 448 kts 284°
2026-05-04 22:12 24.86751 35.77628 27973 ft 448 kts 284°
2026-05-04 22:12 24.87742 35.74376 27988 ft 448 kts 284°
2026-05-04 22:13 24.88733 35.71120 27981 ft 448 kts 284°
2026-05-04 22:13 24.89722 35.67869 27976 ft 448 kts 284°
2026-05-04 22:13 24.90711 35.64614 27974 ft 448 kts 284°
2026-05-04 22:13 24.91699 35.61361 27975 ft 448 kts 284°
2026-05-04 22:14 24.92686 35.58108 27975 ft 448 kts 284°
2026-05-04 22:14 24.93673 35.54852 27977 ft 448 kts 284°
2026-05-04 22:14 24.94658 35.51600 27977 ft 448 kts 284°
2026-05-04 22:14 24.95642 35.48345 27988 ft 448 kts 284°
2026-05-04 22:15 24.96626 35.45093 27978 ft 448 kts 284°
2026-05-04 22:15 24.97608 35.41838 27979 ft 448 kts 284°
2026-05-04 22:15 24.98592 35.38580 27981 ft 448 kts 284°
2026-05-04 22:15 24.99574 35.35322 27981 ft 448 kts 284°
2026-05-04 22:16 25.00554 35.32069 27984 ft 448 kts 284°
2026-05-04 22:16 25.01533 35.28814 27984 ft 448 kts 284°
2026-05-04 22:16 25.02513 35.25556 27983 ft 448 kts 284°
2026-05-04 22:16 25.03491 35.22299 27996 ft 447 kts 284°
2026-05-04 22:17 25.04469 35.19041 27988 ft 447 kts 284°
2026-05-04 22:17 25.05446 35.15785 27985 ft 447 kts 284°
2026-05-04 22:17 25.06423 35.12528 27991 ft 447 kts 284°
2026-05-04 22:17 25.07401 35.09271 27992 ft 447 kts 284°
2026-05-04 22:18 25.08379 35.06015 27990 ft 447 kts 284°
2026-05-04 22:18 25.09358 35.02758 27996 ft 447 kts 284°
2026-05-04 22:18 25.10005 35.00601 27996 ft 447 kts 284°
2026-05-04 22:19 25.11936 34.94158 27994 ft 447 kts 284°
2026-05-04 22:19 25.12912 34.90895 27992 ft 447 kts 284°
2026-05-04 22:19 25.13887 34.87635 27996 ft 447 kts 284°
2026-05-04 22:19 25.14860 34.84376 27987 ft 447 kts 284°
2026-05-04 22:20 25.15833 34.81116 27996 ft 447 kts 284°
2026-05-04 22:20 25.16806 34.77853 27987 ft 447 kts 284°
2026-05-04 22:20 25.17777 34.74590 27990 ft 447 kts 284°
2026-05-04 22:21 25.19720 34.68060 27991 ft 448 kts 284°
2026-05-04 22:21 25.20690 34.64792 27989 ft 448 kts 284°
2026-05-04 22:21 25.21662 34.61517 27996 ft 448 kts 284°
2026-05-04 22:21 25.22633 34.58242 27992 ft 449 kts 284°
2026-05-04 22:22 25.23603 34.54967 27985 ft 449 kts 284°
2026-05-04 22:22 25.24572 34.51692 27992 ft 449 kts 284°
2026-05-04 22:22 25.25539 34.48420 27991 ft 448 kts 284°
2026-05-04 22:22 25.26508 34.45144 27993 ft 448 kts 284°
2026-05-04 22:23 25.27475 34.41868 27992 ft 448 kts 284°
2026-05-04 22:23 25.28440 34.38595 27990 ft 448 kts 284°
2026-05-04 22:23 25.29404 34.35324 27991 ft 448 kts 284°
2026-05-04 22:23 25.30368 34.32049 27993 ft 448 kts 284°
2026-05-04 22:24 25.31331 34.28772 27993 ft 448 kts 284°
2026-05-04 22:24 25.32293 34.25497 27992 ft 448 kts 284°
2026-05-04 22:24 25.33255 34.22219 27990 ft 448 kts 284°
2026-05-04 22:25 25.35178 34.15660 27998 ft 448 kts 284°
2026-05-04 22:25 25.36138 34.12382 27993 ft 448 kts 284°
2026-05-04 22:25 25.37097 34.09102 27997 ft 448 kts 284°
2026-05-04 22:25 25.38055 34.05822 28000 ft 448 kts 284°
2026-05-04 22:26 25.39014 34.02538 27995 ft 448 kts 284°
2026-05-04 22:26 25.40902 33.96064 28000 ft 449 kts 284°
2026-05-04 22:27 25.42800 33.89539 28004 ft 449 kts 284°
2026-05-04 22:27 25.44704 33.82960 28003 ft 449 kts 284°
2026-05-04 22:28 25.46603 33.76382 28002 ft 449 kts 284°
2026-05-04 22:28 25.48500 33.69800 28003 ft 449 kts 284°
2026-05-04 22:29 25.50408 33.63166 27996 ft 450 kts 284°
2026-05-04 22:29 25.52304 33.56562 28000 ft 450 kts 284°
2026-05-04 22:30 25.54199 33.49951 28001 ft 451 kts 284°
2026-05-04 22:30 25.56079 33.43381 28015 ft 451 kts 284°
2026-05-04 22:31 25.57983 33.36716 28018 ft 451 kts 284°
2026-05-04 22:31 25.59869 33.30097 28004 ft 450 kts 284°
2026-05-04 22:32 25.61752 33.23478 27997 ft 450 kts 284°
2026-05-04 22:32 25.63619 33.16903 28000 ft 450 kts 284°
2026-05-04 22:33 25.65495 33.10282 28014 ft 451 kts 284°
2026-05-04 22:33 25.67369 33.03658 28022 ft 450 kts 284°
2026-05-04 22:34 25.69212 32.97127 28020 ft 450 kts 284°
2026-05-04 22:34 25.71080 32.90499 28017 ft 450 kts 284°
2026-05-04 22:35 25.72945 32.83870 28016 ft 450 kts 284°
2026-05-04 22:35 25.74143 32.77108 28052 ft 446 kts 272°
2026-05-04 22:36 25.74116 32.70248 28036 ft 445 kts 263°
2026-05-04 22:36 25.73233 32.63469 28053 ft 444 kts 261°
2026-05-04 22:37 25.72308 32.56682 28053 ft 445 kts 261°
2026-05-04 22:37 25.71406 32.49883 28045 ft 446 kts 262°
2026-05-04 22:38 25.70516 32.43070 28035 ft 446 kts 262°
2026-05-04 22:38 25.69628 32.36261 28043 ft 446 kts 262°
2026-05-04 22:39 25.68735 32.29447 28050 ft 447 kts 262°
2026-05-04 22:39 25.67838 32.22635 28048 ft 447 kts 262°
2026-05-04 22:40 25.66937 32.15819 28056 ft 447 kts 262°
2026-05-04 22:40 25.66035 32.09012 28055 ft 446 kts 262°
2026-05-04 22:41 25.65129 32.02205 28052 ft 446 kts 262°
2026-05-04 22:41 25.64231 31.95480 28067 ft 447 kts 262°
2026-05-04 22:42 25.63318 31.88669 28063 ft 447 kts 262°
2026-05-04 22:42 25.62391 31.81847 28071 ft 448 kts 262°
2026-05-04 22:43 25.61444 31.75024 28072 ft 448 kts 262°
2026-05-04 22:43 25.60491 31.68192 28078 ft 449 kts 262°
2026-05-04 22:44 25.59537 31.61355 28077 ft 449 kts 262°
2026-05-04 22:44 25.58580 31.54510 28080 ft 450 kts 262°
2026-05-04 22:45 25.57620 31.47665 28081 ft 450 kts 262°
2026-05-04 22:45 25.56173 31.37401 28087 ft 450 kts 262°
2026-05-04 22:46 25.55205 31.30562 28083 ft 449 kts 261°
2026-05-04 22:46 25.54234 31.23726 28084 ft 449 kts 261°
2026-05-04 22:47 25.53260 31.16891 28094 ft 450 kts 261°
2026-05-04 22:47 25.52282 31.10047 28099 ft 450 kts 261°
2026-05-04 22:48 25.51299 31.03201 28087 ft 450 kts 261°
2026-05-04 22:48 25.50327 30.96449 28089 ft 451 kts 261°
2026-05-04 22:49 25.49338 30.89601 28092 ft 451 kts 261°
2026-05-04 22:49 25.48346 30.82754 28092 ft 450 kts 261°
2026-05-04 22:50 25.47352 30.75912 28086 ft 450 kts 261°
2026-05-04 22:50 25.46354 30.69073 28092 ft 450 kts 261°
2026-05-04 22:51 25.45519 30.62225 28076 ft 448 kts 269°
2026-05-04 22:51 25.46066 30.55356 28091 ft 450 kts 279°
2026-05-04 22:52 25.47890 30.48713 28103 ft 453 kts 287°
2026-05-04 22:52 25.49942 30.42117 28099 ft 454 kts 286°
2026-05-04 22:53 25.51922 30.35478 28097 ft 454 kts 286°
2026-05-04 22:53 25.53880 30.28871 28121 ft 455 kts 286°
2026-05-04 22:54 25.55854 30.22221 28105 ft 454 kts 286°
2026-05-04 22:54 25.57823 30.15590 28105 ft 452 kts 286°
2026-05-04 22:55 25.59797 30.08931 28125 ft 451 kts 286°
2026-05-04 22:55 25.61733 30.02389 28118 ft 449 kts 286°
2026-05-04 22:56 25.63672 29.95822 28114 ft 448 kts 286°
2026-05-04 22:56 25.65594 29.89301 28119 ft 448 kts 286°
2026-05-04 22:57 25.67527 29.82731 28111 ft 448 kts 286°
2026-05-04 22:57 25.69458 29.76157 28124 ft 449 kts 286°
2026-05-04 22:58 25.71389 29.69569 28119 ft 449 kts 286°
2026-05-04 22:58 25.73318 29.62974 28117 ft 450 kts 286°
2026-05-04 22:59 25.75259 29.56328 28114 ft 450 kts 286°
2026-05-04 22:59 25.77170 29.49772 28124 ft 450 kts 286°
2026-05-04 23:00 25.79103 29.43127 28120 ft 449 kts 286°
2026-05-04 23:00 25.80993 29.36573 28121 ft 449 kts 286°
2026-05-04 23:01 25.82888 29.29973 28117 ft 449 kts 286°
2026-05-04 23:01 25.84474 29.24445 28122 ft 449 kts 286°
2026-05-04 23:02 25.86365 29.17845 28123 ft 448 kts 286°
2026-05-04 23:02 25.88252 29.11247 28121 ft 448 kts 286°
2026-05-04 23:03 25.90136 29.04650 28119 ft 448 kts 286°
2026-05-04 23:03 25.91997 28.98120 28123 ft 448 kts 286°
2026-05-04 23:04 25.93873 28.91523 28125 ft 448 kts 286°
2026-05-04 23:04 25.95745 28.84927 28121 ft 448 kts 286°
2026-05-04 23:05 25.97613 28.78336 28128 ft 450 kts 286°
2026-05-04 23:05 25.98544 28.75042 28286 ft 454 kts 286°
2026-05-04 23:05 25.99503 28.71648 28685 ft 454 kts 286°
2026-05-04 23:06 26.00432 28.68359 29177 ft 451 kts 286°
2026-05-04 23:06 26.01368 28.65042 29673 ft 449 kts 286°
2026-05-04 23:06 26.02298 28.61742 30197 ft 446 kts 286°
2026-05-04 23:06 26.03222 28.58461 30602 ft 444 kts 286°
2026-05-04 23:07 26.04141 28.55194 30952 ft 442 kts 286°
2026-05-04 23:07 26.05058 28.51932 31285 ft 442 kts 286°
2026-05-04 23:07 26.05971 28.48676 31631 ft 440 kts 286°
2026-05-04 23:07 26.06881 28.45434 31988 ft 439 kts 285°
2026-05-04 23:08 26.08708 28.38910 32111 ft 442 kts 285°
2026-05-04 23:08 26.10524 28.32408 32117 ft 437 kts 285°
2026-05-04 23:09 26.12316 28.25959 32126 ft 436 kts 285°
2026-05-04 23:09 26.14101 28.19517 32127 ft 435 kts 285°
2026-05-04 23:10 26.15882 28.13077 32135 ft 436 kts 285°
2026-05-04 23:10 26.17664 28.06624 32140 ft 436 kts 285°
2026-05-04 23:11 26.19445 28.00161 32131 ft 437 kts 285°
2026-05-04 23:11 26.21200 27.93780 32128 ft 438 kts 285°
2026-05-04 23:12 26.22982 27.87292 32129 ft 438 kts 285°
2026-05-04 23:12 26.24762 27.80796 32132 ft 438 kts 285°
2026-05-04 23:13 26.26539 27.74297 32134 ft 439 kts 285°
2026-05-04 23:13 26.28315 27.67794 32132 ft 439 kts 285°
2026-05-04 23:14 26.30086 27.61291 32130 ft 438 kts 285°
2026-05-04 23:14 26.31853 27.54792 32127 ft 438 kts 285°
2026-05-04 23:15 26.33617 27.48295 32134 ft 438 kts 285°
2026-05-04 23:15 26.35376 27.41798 32140 ft 438 kts 285°
2026-05-04 23:16 26.37133 27.35298 32133 ft 438 kts 285°
2026-05-04 23:16 26.38886 27.28799 32135 ft 438 kts 285°
2026-05-04 23:17 26.40636 27.22299 32141 ft 438 kts 285°
2026-05-04 23:17 26.42384 27.15794 32151 ft 438 kts 285°
2026-05-04 23:18 26.44116 27.09335 32143 ft 438 kts 285°
2026-05-04 23:18 26.45858 27.02828 32137 ft 437 kts 285°
2026-05-04 23:19 26.47570 26.96418 32143 ft 437 kts 285°
2026-05-04 23:19 26.49303 26.89916 32141 ft 437 kts 285°
2026-05-04 23:20 26.51032 26.83417 32142 ft 437 kts 285°
2026-05-04 23:20 26.52758 26.76917 32140 ft 436 kts 285°
2026-05-04 23:21 26.54480 26.70420 32141 ft 436 kts 285°
2026-05-04 23:21 26.56198 26.63922 32142 ft 436 kts 285°
2026-05-04 23:22 26.57913 26.57422 32145 ft 436 kts 285°
2026-05-04 23:22 26.59627 26.50916 32144 ft 436 kts 285°
2026-05-04 23:23 26.61337 26.44410 32144 ft 437 kts 285°
2026-05-04 23:23 26.63045 26.37897 32147 ft 437 kts 285°
2026-05-04 23:24 26.64751 26.31383 32148 ft 437 kts 285°
2026-05-04 23:24 26.66453 26.24865 32155 ft 437 kts 285°
2026-05-04 23:25 26.68154 26.18340 32170 ft 437 kts 285°
2026-05-04 23:25 26.69852 26.11815 32156 ft 437 kts 285°
2026-05-04 23:26 26.71543 26.05302 32146 ft 436 kts 285°
2026-05-04 23:26 26.73202 25.98900 32148 ft 435 kts 285°
2026-05-04 23:27 26.74882 25.92404 32143 ft 434 kts 285°
2026-05-04 23:27 26.76556 25.85916 32147 ft 434 kts 285°
2026-05-04 23:28 26.78226 25.79431 32151 ft 434 kts 285°
2026-05-04 23:28 26.79893 25.72942 32150 ft 434 kts 285°
2026-05-04 23:29 26.81558 25.66452 32150 ft 434 kts 285°
2026-05-04 23:29 26.83220 25.59955 32149 ft 434 kts 285°
2026-05-04 23:30 26.84881 25.53452 32154 ft 435 kts 285°
2026-05-04 23:30 26.86530 25.46982 32151 ft 435 kts 285°
2026-05-04 23:31 26.88189 25.40458 32149 ft 436 kts 285°
2026-05-04 23:31 26.89847 25.33925 32152 ft 436 kts 285°
2026-05-04 23:32 26.91502 25.27390 32150 ft 436 kts 285°
2026-05-04 23:32 26.93155 25.20851 32149 ft 436 kts 285°
2026-05-04 23:33 26.94805 25.14310 32153 ft 436 kts 285°
2026-05-04 23:33 26.96141 25.07727 32145 ft 432 kts 271°
2026-05-04 23:34 26.95778 25.04381 32157 ft 436 kts 257°
2026-05-04 23:34 26.94662 25.01211 32168 ft 441 kts 245°
2026-05-04 23:34 26.91104 24.95629 32123 ft 454 kts 228°
2026-05-04 23:35 26.88503 24.93563 32164 ft 462 kts 215°
2026-05-04 23:35 26.85670 24.91828 32150 ft 466 kts 213°
2026-05-04 23:35 26.79888 24.88488 32161 ft 469 kts 213°
2026-05-04 23:36 26.74097 24.85088 32156 ft 471 kts 214°
2026-05-04 23:36 26.68327 24.81604 32154 ft 472 kts 214°
2026-05-04 23:37 26.62566 24.78085 32145 ft 472 kts 214°
2026-05-04 23:37 26.56808 24.74568 32141 ft 472 kts 214°
2026-05-04 23:38 26.51055 24.71061 32148 ft 471 kts 214°
2026-05-04 23:38 26.45303 24.67560 32148 ft 470 kts 214°
2026-05-04 23:39 26.39565 24.64073 32129 ft 469 kts 214°
2026-05-04 23:39 26.33837 24.60596 32138 ft 469 kts 214°
2026-05-04 23:40 26.28107 24.57122 32144 ft 469 kts 214°
2026-05-04 23:40 26.22380 24.53653 32139 ft 469 kts 214°
2026-05-04 23:41 26.16649 24.50185 32123 ft 469 kts 214°
2026-05-04 23:41 26.10913 24.46719 32145 ft 469 kts 214°
2026-05-04 23:42 26.05170 24.43252 32145 ft 470 kts 214°
2026-05-04 23:42 25.99420 24.39785 32143 ft 470 kts 214°
2026-05-04 23:43 25.93660 24.36316 32142 ft 471 kts 213°
2026-05-04 23:43 25.87897 24.32849 32132 ft 471 kts 213°
2026-05-04 23:44 25.82129 24.29383 32144 ft 472 kts 213°
2026-05-04 23:44 25.76349 24.25914 32139 ft 473 kts 213°
2026-05-04 23:45 25.71539 24.23029 32143 ft 473 kts 213°
2026-05-04 23:45 25.65746 24.19559 32134 ft 473 kts 213°
2026-05-04 23:46 25.59954 24.16094 32137 ft 473 kts 213°
2026-05-04 23:46 25.54162 24.12632 32137 ft 473 kts 213°
2026-05-04 23:47 25.48372 24.09176 32131 ft 472 kts 213°
2026-05-04 23:47 25.42587 24.05726 32128 ft 472 kts 213°
2026-05-04 23:48 25.36806 24.02281 32123 ft 472 kts 213°
2026-05-04 23:48 25.31096 23.98883 32128 ft 472 kts 213°
2026-05-04 23:49 25.25314 23.95447 32129 ft 472 kts 213°
2026-05-04 23:49 25.19527 23.92009 32125 ft 472 kts 213°
2026-05-04 23:50 25.13737 23.88576 32108 ft 473 kts 213°
2026-05-04 23:50 25.07944 23.85143 32121 ft 473 kts 213°
2026-05-04 23:51 25.02151 23.81714 32128 ft 473 kts 213°
2026-05-04 23:51 24.96360 23.78291 32122 ft 473 kts 213°
2026-05-04 23:52 24.90559 23.74865 32125 ft 473 kts 212°
2026-05-04 23:52 24.84756 23.71441 32117 ft 473 kts 212°
2026-05-04 23:53 24.78951 23.68020 32120 ft 473 kts 212°
2026-05-04 23:53 24.73145 23.64602 32118 ft 473 kts 212°
2026-05-04 23:54 24.67339 23.61188 32117 ft 473 kts 212°
2026-05-04 23:54 24.61527 23.57774 32100 ft 473 kts 212°
2026-05-04 23:55 24.55721 23.54366 32114 ft 473 kts 212°
2026-05-04 23:56 24.47014 23.49264 32115 ft 473 kts 212°
2026-05-04 23:56 24.41206 23.45864 32111 ft 473 kts 212°
2026-05-04 23:57 24.35398 23.42468 32089 ft 473 kts 212°
2026-05-04 23:57 24.29593 23.39077 32110 ft 473 kts 212°
2026-05-04 23:58 24.23790 23.35690 32106 ft 473 kts 212°
2026-05-04 23:58 24.18063 23.32169 32093 ft 469 kts 219°
2026-05-04 23:59 24.13142 23.27568 32113 ft 463 kts 229°
2026-05-04 23:59 24.09068 23.22151 32099 ft 460 kts 235°
2026-05-05 00:00 24.05139 23.16607 32098 ft 461 kts 235°
2026-05-05 00:00 24.01193 23.11072 32105 ft 462 kts 234°
2026-05-05 00:01 23.97225 23.05552 32108 ft 462 kts 234°
2026-05-05 00:01 23.93240 23.00032 32100 ft 463 kts 234°
2026-05-05 00:02 23.89289 22.94567 32100 ft 463 kts 234°
2026-05-05 00:02 23.85318 22.89078 32088 ft 463 kts 234°
2026-05-05 00:03 23.81321 22.83560 32096 ft 463 kts 234°
2026-05-05 00:03 23.77324 22.78047 32097 ft 463 kts 234°
2026-05-05 00:04 23.73327 22.72539 32099 ft 463 kts 234°
2026-05-05 00:04 23.69330 22.67039 32099 ft 462 kts 234°
2026-05-05 00:05 23.65333 22.61544 32098 ft 462 kts 234°
2026-05-05 00:05 23.61334 22.56052 32099 ft 462 kts 234°
2026-05-05 00:06 23.57333 22.50564 32103 ft 462 kts 234°
2026-05-05 00:06 23.53333 22.45083 32104 ft 462 kts 234°